Location: Bittkow
(50.3000°N, 19.0000°E)
Time: 23:26:32
(UTC+00:00)

CZ-4C R/B - Pass Details

Date: 19 September 2020
Orbit: 407 x 491 km, 97.7° (Epoch: 30 October)

Event Time Altitude Azimuth Distance (km) Brightness Sun altitude
Exits shadow 02:09:03 20° 151° (SSE) 1,177 4.9 -21.6°
Maximum altitude 02:11:24 65° 73° (ENE) 543 3.4 -21.3°
Drops below altitude 10° 02:14:59 10° 352° (N) 1,672 6.0 -20.8°
Sets 02:17:02 0° 349° (N) 2,546 7.0 -20.5°
